OBJECT J, 59781

Orbit data source: Space-Track

You're viewing an Uncataloged Satellite

Recently launched and/or uncataloged satellites may have evolving metadata. Metadata may include but not limited to: Owner, Maufacturer, Bus, Motor, and Mission.

OBJECT J, 59781 is a satellite owned by Byuro 1440 (CIS) in SSO that was launched on Thu, 16 May 2024 UTC via a SOYUZ-2-1B launch vehicle from the Plesetsk Missile And Space Complex (PKMTR). Unknown objects in Earth's orbit typically refer to objects detected orbiting the Earth but have not yet been identified or cataloged. These objects could be anything from previously untracked satellites, spent rocket stages, debris from satellite collisions, or even natural meteoroids temporarily captured by Earth's gravity.

Loading next visibility...
Identifier
59781, 2024-092J
Orbit
SSO
Last TLE update
5 hours ago
Origin
Flag of CISBureau 1440 (CIS)
Manufacturer
Byuro 1440
Mission
Operational spacecraft
Bus & Motor
RASSVET-2, Unknown motor
Mass
~200 kg wet, ~200 kg dry
Launch date (UTC)
2024-05-16 (1 year ago)
Launch vehicle
SOYUZ-2-1B
Launch site
Plesetsk Missile And Space Complex (PKMTR)
Object type
Unknown
Shape & HBR
Unknown
Radar Cross Section
Medium (>0.1 m² and <1 m²)

Expand to show TLE details & history

TLE from 5 hours ago
0 OBJECT J
1 59781U 24092J   25182.19143299  .00000158  00000-0  75953-4 0  9990
2 59781  98.6387 297.3462 0012736 157.5954 202.5788 14.31622788 58671
Epoch: 2025-07-01T04:35Z
TLE epoch observation values (Epoch: 2025-07-01T04:35:39.81Z)
Latitude
Longitude
-51.0601°
Altitude
797.673 km
Speed
7.45 km/s
True Right ascension
19h 49m 23s
True Declination
0° 00' 00"
Sunlit
Object was in full shadow at epoch
Visualization orbit readout
Latitude
79.09468°
Longitude
-179.1714°
Altitude
795.005 km
Speed
7.465 km/s
Apparent Right ascension
10h 03m 11s
Apparent Declination
25° 33' 29"
Sunlit
Object is in daylight
Visualization observer readout
Local Sidereal Time
21:43:01
Azimuth
355.008° N
Elevation
-24.358°
Doppler factor
1
Orbital elements
Apogee altitude
792.572 km
Perigee altitude
774.33 km
Semi-major axis
7,161.588 km
Eccentricity
0.00127
Inclination
98.6387°
RAAN
297.3462°
Arg. of periapsis
157.5954°
True anomaly
Unknown
Mean anomaly
202.5788°
Eccentric anomaly
Unknown
Mean motion
3.5812 °/min
Orbital period
100.52 mins
BSTAR
0.000075953
Loading maneuver chart data...
Loading SW <> Apogee altitude chart data...
Loading historical data...
Loading historical data...
Loading historical data...
Loading historical data...
Loading historical data...
Loading historical data...
Loading historical data...

OBJECT J Visibility forecast

Observer location: undefined°, undefined°

Span
Click to sort rows by Start time (UTC) header in descending order
Start Az.
Max El. time (UTC)
Max El. Az.
Max El.
End time (UTC)
End Az.
9 mins2025-07-01 20:16:37.808Z24.886° NE2025-07-01 20:20:37.808Z99.585° ESE40.2°2025-07-01 20:25:37.808Z180.03° SSW
5 mins2025-07-01 21:57:37.808Z323.809° NNW2025-07-01 21:59:37.808Z296.482° NW16.687°2025-07-01 22:02:37.808Z259.113° W
9 mins2025-07-02 07:32:37.808Z160.827° S2025-07-02 07:37:37.808Z27.554° NE44.19°2025-07-02 07:41:37.808Z349.312° N
|